Погода в Козлове

Украина / Тернопольская область     49°33′43″N   25°20′26″E
темп.,
°C
ветер,
м/с
пор.,
м/с
влажн.,
%
обл.,
%
осадки,
мм/ч
давл.,
гПа
погр.,
м
12 мая, ср
ср1200:00+11вюв412790 0.0 1015226
03:00+10вюв411935 0.0 1014209
06:00+10вюв410955 0.0 1013177
09:00+15вюв69790 0.0 1012483
12:00+15вюв8981100 0.1 1012921
15:00+12вюв7107396 0.1 1013724
18:00+13юв697026 0.0 1011751
21:00+10вюв6118064 0.0 1011557
13 мая, чт
чт1300:00+8вюв612780 0.0 1010459
03:00+6вюв513860 0.0 1009384
06:00+6вюв613902 0.0 1007402
09:00+9юв71287100 0.0 1005583
12:00+12юв7980100 0.0 1004718
15:00+15ююв7877100 0.1 1003896
18:00+12ююв4996100 1.6 1003379
21:00+11ююв51094100 2.1 1004325
14 мая, пт
пт1400:00+10ююв4898100 0.0 1004264
03:00+10ю3698100 0.0 1004173
06:00+9ю3494100 0.0 100562
09:00+14юз34786 0.1 1005320
12:00+16зюз446799 0.9 10061173
15:00+17з5761100 1.6 10071657
18:00+13зсз6775100 0.1 1009726
21:00+9зсз3491100 0.1 101070
15 мая, сб
сб1500:00+8зсз33936 0.0 101145
03:00+7зюз339211 0.0 101233
06:00+7юз229269 0.0 101225
09:00+12ю237792 0.0 1011340
12:00+17ю33635 0.2 10111201
15:00+19ююв44535 0.4 10091670
18:00+18юв466296 0.1 10091470
21:00+14вюв477758 0.4 1009102
16 мая, вс
вс1600:00+11вюв398379 0.0 1009147
03:00+11вюв4118888 0.0 1009235
06:00+11вюв51390100 0.0 1008328
09:00+14вюв71282100 0.4 1008626
12:00+16вюв81175100 0.6 10081065
15:00+18юв71069100 1.6 10061450
18:00+17вюв61077100 1.3 10061067
21:00+13вюв51286100 2.6 1006423